Tracking 18980 objects as of 21-Feb-2018
HD Live streaming from Space Station
objects crossing your sky now

FENGYUN 1C DEB

Track FENGYUN 1C DEB now!
10-day predictions


NORAD ID: 30593
Int'l Code: 1999-025ALY
Perigee: 773.4 km
Apogee: 792.7 km
Inclination: 102.4 °
Period: 100.4 minutes
Semi major axis: 7154 km
RCS: 0.0129 m2 (small)
Launch date: May 10, 1999
Source: People's Republic of China (PRC)
Launch site: Taiyaun Space Center, China (TSC)

Note: This is SATELLITE DEBRIS
aabbcc
Your satellite tracking list
Your tracking list is empty




NASA's NSSDC Master Catalog

Two Line Element Set (TLE):
1 30593U 99025ALY 18051.55954360 +.00001289 +00000-0 +48231-3 0  9998
2 30593 102.4039 282.5762 0013512 221.1942 199.1055 14.34739514575521
Source of the keplerian elements: AFSPC